Weather History for KAQW - March, 2013

Change the Weather History Date:

Thursday, March 7, 2013

  Actual Average Record
Temperature  
Mean Temperature 31 °F -  
Max Temperature 34 °F 35 °F 59 °F (2012)
Min Temperature 28 °F 18 °F -14 °F (2003)
Degree Days  
Heating Degree Days 34    
Moisture  
Dew Point 24 °F    
Average Humidity 75    
Maximum Humidity 86    
Minimum Humidity 55    
Precipitation  
Precipitation 0.12 in - - ()
Sea Level Pressure  
Sea Level Pressure 30.09 in    
Wind  
Wind Speed 6 mph (West)    
Max Wind Speed 9 mph    
Max Gust Speed 23 mph    
Visibility 4 miles    
Events Snow    
Averages and records for this station are not official NWS values.
T = Trace of Precipitation, MM = Missing Value Source: NWS Daily Summary

Daily Weather History Graph

Daily Weather History Graph

Search for Another Location

Airport or City:

Trip Planner

Search our weather history database for the weather conditions in past years. The results will help you decide how hot, cold, wet, or windy it might be!

Date:

Astronomy

Mar. 07, 2013 Rise Set
Actual Time 6:18 AM EST 5:49 PM EST
Civil Twilight 5:49 AM EST 6:18 PM EST
Nautical Twilight 5:17 AM EST 6:50 PM EST
Astronomical Twilight 4:44 AM EST 7:23 PM EST
Moon 3:20 AM EST (3/7) 1:30 PM EST (3/7)
Length of Visible Light 12h 28m
Length of Day
11h 31m
Waning Crescent, 20% of the Moon is Illuminated
Mar 7
Waning Crescent
Mar 11
New
Mar 19
First Quarter
Mar 27
Full
Apr 3
Last Quarter

Hourly Weather History & Observations

Time (EST) Temp. Windchill Dew Point Humidity Pressure Visibility Wind Dir Wind Speed Gust Speed Precip Events Conditions
1:52 AM 32.0 °F 24.8 °F 21.0 °F 64% 30.11 in 10.0 mi NE 8.1 mph 23.0 mph N/A   Overcast
2:07 AM 32.0 °F 25.6 °F 21.2 °F 64% 30.08 in 10.0 mi ENE 6.9 mph - N/A   Overcast
2:50 AM 32.0 °F 24.8 °F 19.4 °F 60% 30.07 in 10.0 mi NE 8.1 mph - N/A   Overcast
2:52 AM 32.0 °F 25.6 °F 19.9 °F 61% 30.09 in 10.0 mi East 6.9 mph - N/A   Overcast
3:52 AM 32.0 °F 25.6 °F 19.9 °F 61% 30.08 in 10.0 mi Variable 6.9 mph 19.6 mph N/A   Overcast
4:52 AM 32.0 °F 28.7 °F 19.0 °F 59% 30.09 in 10.0 mi Variable 3.5 mph - N/A   Overcast
5:52 AM 32.0 °F 25.6 °F 19.0 °F 59% 30.11 in 10.0 mi Variable 6.9 mph - N/A   Overcast
6:52 AM 32.0 °F - 18.0 °F 56% 30.11 in 10.0 mi Calm Calm - N/A   Overcast
7:05 AM 32.0 °F 27.5 °F 17.6 °F 55% 30.08 in 10.0 mi ESE 4.6 mph - N/A   Overcast
7:32 AM 30.2 °F 26.7 °F 19.4 °F 64% 30.09 in 1.8 mi ESE 3.5 mph - 0.00 in Snow Light Snow
7:52 AM 30.0 °F - 21.9 °F 72% 30.12 in 3.0 mi Calm Calm - 0.00 in Snow Light Snow
8:52 AM 30.9 °F - 23.0 °F 72% 30.11 in 10.0 mi Calm Calm - 0.00 in   Overcast
9:52 AM 33.1 °F 28.7 °F 21.9 °F 64% 30.11 in 10.0 mi NW 4.6 mph - N/A   Overcast
10:52 AM 33.1 °F 27.7 °F 23.0 °F 66% 30.11 in 10.0 mi NW 5.8 mph - N/A   Overcast
11:52 AM 34.0 °F 29.8 °F 24.1 °F 67% 30.11 in 10.0 mi Variable 4.6 mph - N/A   Overcast
12:09 PM 33.8 °F 28.6 °F 24.8 °F 70% 30.08 in 10.0 mi NW 5.8 mph - N/A   Overcast
12:43 PM 33.8 °F 29.6 °F 24.8 °F 70% 30.07 in 5.0 mi Variable 4.6 mph - 0.00 in Snow Light Snow
12:52 PM 34.0 °F 27.2 °F 25.0 °F 70% 30.09 in 5.0 mi NW 8.1 mph - 0.00 in Snow Light Snow
1:37 PM 33.8 °F 27.7 °F 24.8 °F 70% 30.07 in 2.5 mi Variable 6.9 mph - 0.00 in Snow Light Snow
1:52 PM 34.0 °F 26.6 °F 25.0 °F 70% 30.09 in 2.5 mi NW 9.2 mph - 0.00 in Snow Light Snow
2:19 PM 33.8 °F 27.7 °F 26.6 °F 75% 30.07 in 1.8 mi WNW 6.9 mph - 0.00 in Snow Light Snow
2:28 PM 33.8 °F 27.7 °F 26.6 °F 75% 30.07 in 1.0 mi WNW 6.9 mph - 0.00 in Snow Light Snow
2:52 PM 33.1 °F 27.7 °F 26.1 °F 75% 30.10 in 1.2 mi Variable 5.8 mph - 0.00 in Snow Light Snow
3:52 PM 32.0 °F 26.4 °F 26.1 °F 79% 30.11 in 1.0 mi Variable 5.8 mph - 0.01 in Snow Light Snow
4:24 PM 32.0 °F 26.4 °F 26.6 °F 80% 30.09 in 0.8 mi Variable 5.8 mph - 0.01 in Snow Light Snow
4:31 PM 30.2 °F 24.3 °F 26.6 °F 86% 30.09 in 0.5 mi WNW 5.8 mph - 0.01 in Snow Snow
4:52 PM 30.9 °F 25.2 °F 26.1 °F 82% 30.12 in 0.5 mi WNW 5.8 mph - 0.02 in Snow Snow
5:15 PM 30.2 °F 24.3 °F 24.8 °F 80% 30.10 in 1.0 mi West 5.8 mph - 0.01 in Snow Light Snow
5:25 PM 30.2 °F 22.6 °F 24.8 °F 80% 30.10 in 0.8 mi West 8.1 mph - 0.01 in Snow Light Snow
5:52 PM 30.0 °F 22.4 °F 25.0 °F 82% 30.13 in 1.0 mi West 8.1 mph - 0.02 in Snow Light Snow
6:23 PM 30.2 °F 22.6 °F 24.8 °F 80% 30.11 in 1.2 mi West 8.1 mph - 0.00 in Snow Light Snow
6:52 PM 30.0 °F 23.2 °F 25.0 °F 82% 30.14 in 1.2 mi West 6.9 mph - 0.01 in Snow Light Snow
7:49 PM 28.4 °F 21.2 °F 24.8 °F 86% 30.10 in 1.5 mi West 6.9 mph - 0.01 in Snow Light Snow
7:52 PM 28.9 °F 21.9 °F 25.0 °F 85% 30.13 in 1.5 mi West 6.9 mph - 0.01 in Snow Light Snow
8:07 PM 28.4 °F 20.4 °F 24.8 °F 86% 30.10 in 1.0 mi West 8.1 mph - 0.01 in Snow Light Snow
8:17 PM 28.4 °F 22.2 °F 24.8 °F 86% 30.10 in 0.8 mi West 5.8 mph - 0.01 in Snow Light Snow
8:31 PM 28.4 °F 21.2 °F 24.8 °F 86% 30.10 in 1.0 mi SW 6.9 mph - 0.02 in Snow Light Snow
8:52 PM 28.9 °F 21.9 °F 24.1 °F 82% 30.13 in 1.5 mi WSW 6.9 mph - 0.02 in Snow Light Snow
9:01 PM 28.4 °F 21.2 °F 24.8 °F 86% 30.10 in 2.5 mi West 6.9 mph - 0.00 in Snow Light Snow
9:17 PM 28.4 °F 21.2 °F 24.8 °F 86% 30.09 in 1.8 mi West 6.9 mph - 0.00 in Snow Light Snow
9:49 PM 28.4 °F 21.2 °F 24.8 °F 86% 30.09 in 1.5 mi WSW 6.9 mph - 0.01 in Snow Light Snow
9:52 PM 28.9 °F 22.8 °F 24.1 °F 82% 30.12 in 1.5 mi WSW 5.8 mph - 0.01 in Snow Light Snow
10:11 PM 28.4 °F 23.3 °F 24.8 °F 86% 30.08 in 2.0 mi West 4.6 mph - 0.00 in Snow Light Snow
10:27 PM 28.4 °F 23.3 °F 24.8 °F 86% 30.07 in 1.2 mi WSW 4.6 mph - 0.01 in Snow Light Snow
10:48 PM 28.4 °F 22.2 °F 23.0 °F 80% 30.07 in 1.5 mi WSW 5.8 mph - 0.01 in Snow Light Snow
10:52 PM 28.9 °F 22.8 °F 23.0 °F 78% 30.10 in 1.5 mi WSW 5.8 mph - 0.01 in Snow Light Snow
11:14 PM 28.4 °F 22.2 °F 23.0 °F 80% 30.07 in 1.2 mi SW 5.8 mph - 0.01 in Snow Light Snow
11:33 PM 28.4 °F 21.2 °F 23.0 °F 80% 30.07 in 1.5 mi SW 6.9 mph - 0.01 in Snow Light Snow
11:45 PM 28.4 °F 22.2 °F 23.0 °F 80% 30.06 in 2.5 mi West 5.8 mph - 0.01 in Snow Light Snow
11:52 PM 28.0 °F 21.7 °F 23.0 °F 81% 30.09 in 2.0 mi WSW 5.8 mph - 0.01 in Snow Light Snow
11:56 PM 28.4 °F 21.2 °F 23.0 °F 80% 30.06 in 1.2 mi WSW 6.9 mph - 0.00 in Snow Light Snow